Wind_Speed
2 2 2 1 1 1 1 1 1 1 1 1 1 1 2 2 2 2 2 1 2 2 2 2 2 2 2 2 2 1 1 1 1 1 2 2 2 2 2 2 2 2 2
2 1 1 1 1 1 1 1 1 1 1 0 0 0 1 1 2 2 2 1 0 1 1 1 1 1 2 2 2 1 2 2 2 2 2 2 3 3 3 3 3 3 3
2 2 2 2 2 2 1 1 1 2 1 1 1 1 1 1 1 2 1 1 0 0 0 0 1 1 2 2 2 2 2 3 3 3 3 3 3 3 3 3 3 3 2
2 3 3 3 4 3 3 2 2 3 3 3 2 2 2 1 1 2 1 1 1 1 1 1 1 2 2 2 3 3 3 3 3 3 3 3 3 3 3 3 3 3 3
3 3 3 4 4 4 4 3 3 3 4 3 3 3 3 3 2 2 2 2 2 2 2 2 2 3 3 3 3 4 3 3 3 3 3 3 3 3 3 3 3 4 4
4 4 4 5 5 5 5 5 5 5 5 5 5 5 4 4 4 4 4 3 3 3 3 4 4 4 4 4 4 4 4 4 4 4 4 4 4 4 5 4 4 5 5
6 6 5 6 7 7 6 6 6 6 6 6 6 6 6 6 6 6 5 5 4 4 5 5 5 6 6 6 5 5 5 5 5 5 5 5 5 6 6 6 6 6 6
7 8 7 7 8 8 8 7 7 7 7 8 8 8 8 7 7 7 7 6 6 6 6 6 6 7 7 7 7 7 6 6 7 7 7 7 6 7 7 7 8 8 8
9 8 8 7 8 9 9 9 9 8 8 9 10 10 9 9 9 9 9 8 8 8 8 8 8 8 8 8 8 8 8 8 8 8 9 9 8 8 8 9 9 9 9
9 9 10 9 9 10 10 10 10 10 10 11 11 11 11 11 10 11 11 11 10 10 10 9 9 9 9 10 10 10 10 10 10 10 10 10 10 10 10 10 10 10 11
10 11 11 11 10 11 12 12 12 12 11 12 13 12 12 12 12 12 12 12 12 13 12 12 12 11 12 12 12 12 12 12 12 11 11 11 12 12 12 12 13 12 12
12 12 12 12 12 12 13 13 13 13 13 13 14 14 14 14 14 14 13 14 14 14 14 14 14 14 14 14 14 14 14 14 13 13 13 13 13 14 14 14 14 14 14
12 13 13 12 13 13 13 13 14 14 15 15 15 15 15 16 16 16 16 16 16 16 16 16 16 16 16 16 16 16 16 15 15 15 15 15 15 15 16 16 16 16 16
13 13 13 13 12 13 13 13 14 14 15 16 16 17 18 18 18 18 18 18 18 18 18 18 19 19 18 18 18 18 18 18 18 18 18 17 17 18 18 18 18 18 19
13 13 13 13 13 13 13 14 14 15 16 17 18 19 20 20 21 21 21 21 21 20 20 20 20 21 21 21 21 21 20 20 20 20 20 20 20 20 21 21 21 21 21
13 12 12 13 14 14 14 14 15 16 16 17 19 19 20 21 22 22 23 23 23 23 22 23 23 23 23 23 23 22 22 22 22 21 22 22 22 22 23 23 23 23 23
14 14 14 15 15 14 14 14 15 15 16 17 17 18 19 20 21 22 23 24 25 24 24 24 25 25 25 25 24 24 24 24 24 24 24 24 24 25 25 25 25 25 25
15 15 15 15 15 16 16 15 15 16 16 17 17 18 19 19 20 21 22 23 24 24 25 25 25 25 25 25 25 26 25 26 26 26 26 26 25 25 26 26 26 27 27
15 15 15 15 15 16 16 17 17 17 17 18 17 18 18 19 19 20 21 22 24 25 25 25 25 25 26 26 27 27 27 27 27 27 27 26 26 27 27 28 29 29 30
15 15 16 16 16 16 17 17 18 18 18 18 18 18 18 19 19 20 20 22 23 24 24 25 24 25 26 27 27 27 28 28 28 28 29 29 29 29 30 30 31 32 32
16 16 16 16 17 17 17 18 18 19 19 19 20 19 19 20 21 21 21 22 23 23 24 24 25 25 26 26 27 28 29 29 29 30 31 32 32 32 32 33 34 34 35
16 16 17 17 17 16 16 18 19 20 20 20 20 21 21 21 22 21 22 23 24 24 25 25 26 27 27 28 29 29 30 31 32 33 33 34 35 35 35 35 36 37 37
16 16 17 17 18 18 18 19 19 20 21 21 21 22 24 24 23 24 24 25 25 25 26 27 28 28 29 30 30 31 32 32 33 34 35 35 37 38 38 39 39 39 40
17 17 18 18 19 20 20 20 20 20 21 22 22 23 24 24 25 25 25 25 26 26 27 28 29 29 30 31 32 34 34 34 35 36 36 37 38 39 39 40 40 41 42
18 19 19 19 20 20 20 20 20 20 21 21 22 23 23 24 25 25 26 27 27 28 28 29 30 31 31 32 33 34 35 36 37 38 39 39 39 40 41 42 43 43 44
20 20 20 20 20 20 20 21 21 21 21 22 23 24 25 25 26 27 27 28 28 29 30 31 32 32 32 33 34 35 36 37 38 39 40 41 41 42 43 44 44 44 45
Wind_Direction
111 109 116 118 137 118 101 107 122 112 99 84 67 55 41 33 29 34 41 48 67 73 67 68 67 61 43 23 17 20 15 355 342 322 303 298 301 304 300 302 298 293 289
176 163 170 181 171 173 173 151 181 187 173 314 339 3 16 359 13 15 15 27 75 91 76 61 38 30 19 7 359 344 330 327 324 319 310 299 294 292 288 293 292 286 280
212 231 239 235 219 213 229 238 224 207 208 233 237 212 220 343 329 335 334 332 291 221 101 6 338 337 339 345 343 331 321 312 310 310 305 295 288 284 279 281 286 284 280
239 251 262 261 242 239 243 246 245 224 221 232 235 238 239 259 289 307 311 312 293 270 276 288 304 310 308 314 323 318 314 309 302 297 294 289 287 285 283 278 277 276 272
254 257 266 263 250 248 243 244 254 241 241 236 235 242 246 254 261 272 281 284 276 269 275 278 288 299 296 297 308 309 307 309 306 297 283 281 278 276 276 273 274 272 271
257 259 269 261 256 256 252 248 259 251 248 244 244 248 254 257 256 256 262 273 271 267 270 269 278 289 293 293 298 305 301 301 302 301 287 281 277 275 276 273 276 272 269
260 266 262 258 255 256 254 252 259 257 251 249 250 253 254 258 256 255 260 268 272 267 266 271 277 284 286 286 286 294 294 292 288 288 288 286 281 277 275 270 276 273 267
266 271 269 262 257 257 257 258 256 256 253 252 252 255 257 259 259 256 255 261 266 268 270 273 278 281 282 281 281 286 289 289 286 281 279 278 276 277 274 276 277 276 271
265 272 271 268 260 257 258 259 256 253 255 254 255 256 257 260 262 260 260 263 266 267 269 271 275 277 279 281 281 282 284 285 285 279 277 271 269 274 276 279 278 275 273
261 266 269 271 262 257 258 259 256 256 256 256 256 255 257 258 260 263 263 266 270 270 270 273 276 279 277 276 277 277 277 279 280 282 278 273 270 272 277 278 279 277 274
264 267 269 270 267 261 258 257 257 256 257 257 257 256 257 258 259 261 265 268 270 270 270 274 277 279 278 277 276 274 273 275 275 276 277 274 273 273 277 280 280 277 274
265 266 267 267 267 263 259 258 255 255 257 257 257 256 258 260 263 263 266 268 269 270 270 273 275 276 277 276 275 274 274 273 272 273 275 275 275 276 277 279 282 278 275
268 266 267 267 265 263 265 262 259 257 257 258 257 257 259 260 263 265 267 267 268 271 272 273 275 274 275 275 275 274 274 273 271 271 274 274 274 276 277 278 279 279 277
271 270 269 271 271 270 268 265 262 259 261 262 260 260 260 261 262 265 267 267 269 271 272 274 275 276 276 275 275 274 273 273 271 271 272 275 275 275 276 277 278 278 279
272 274 272 274 272 272 268 266 263 262 265 265 265 265 263 263 264 264 266 267 268 269 271 273 276 276 276 275 275 273 272 273 272 271 272 274 276 275 275 276 276 276 277
271 274 272 272 273 271 271 268 266 267 268 269 268 267 267 264 265 265 265 266 266 266 267 269 272 275 277 276 277 274 271 271 272 274 275 275 276 275 275 275 275 276 277
270 272 273 274 273 272 271 271 268 269 270 271 270 270 270 268 267 266 266 267 267 266 267 269 271 273 276 276 276 274 272 270 271 273 274 275 275 275 276 277 276 276 275
270 273 276 277 274 271 270 271 270 268 269 272 272 272 272 271 270 267 267 268 270 269 269 270 271 272 274 274 275 273 272 272 272 272 274 276 277 277 277 277 277 277 275
273 274 274 276 277 272 268 268 270 271 271 272 273 275 274 272 271 271 270 269 270 271 271 271 271 270 271 272 273 272 272 271 271 272 273 274 277 277 277 277 277 276 276
273 274 274 276 277 276 272 269 270 269 271 272 273 274 274 273 272 273 274 273 272 272 273 273 271 270 271 272 272 272 273 273 273 273 274 274 276 277 278 279 278 276 276
272 274 277 278 278 278 276 272 270 270 273 273 273 274 275 274 273 276 278 277 276 276 276 276 275 274 273 273 273 273 273 274 274 275 275 275 276 277 278 279 278 277 277
274 276 277 278 279 281 281 277 274 273 272 273 274 273 274 274 274 276 277 278 278 278 278 277 276 277 277 274 273 274 274 275 274 274 275 275 277 278 278 278 278 277 278
277 277 278 280 279 279 278 279 277 276 272 272 273 275 274 273 272 274 276 278 277 277 277 278 279 279 278 277 276 275 275 276 275 274 274 275 277 279 279 278 278 278 278
277 277 278 280 280 281 280 280 280 277 276 275 274 275 276 275 274 276 276 279 279 278 278 279 280 280 279 278 278 277 275 275 276 277 277 276 277 278 279 279 279 278 278
277 277 278 280 282 283 282 281 281 279 279 278 277 276 275 275 276 276 277 279 281 281 281 281 281 280 280 280 279 279 278 277 277 277 277 277 278 279 279 280 280 280 280
279 279 280 281 283 283 283 281 280 280 282 282 281 280 278 277 278 278 278 279 280 282 283 283 282 282 282 281 279 279 279 278 278 277 277 278 280 280 279 279 279 280 280
Height
5903 5903 5904 5904 5905 5905 5905 5906 5906 5906 5907 5907 5907 5907 5907 5907 5907 5907 5907 5907 5907 5907 5907 5907 5907 5906 5906 5906 5906 5906 5906 5906 5906 5906 5905 5905 5905 5905 5905 5905 5905 5905 5905
5902 5903 5904 5904 5905 5905 5905 5906 5906 5906 5907 5907 5907 5907 5907 5908 5908 5907 5907 5907 5907 5907 5907 5907 5907 5907 5907 5906 5906 5906 5906 5906 5906 5905 5905 5905 5905 5905 5905 5905 5905 5905 5905
5902 5903 5903 5904 5904 5904 5905 5905 5906 5906 5906 5907 5907 5907 5907 5908 5908 5908 5907 5907 5907 5907 5907 5907 5907 5907 5907 5906 5906 5906 5906 5906 5905 5905 5905 5905 5904 5904 5904 5904 5904 5904 5904
5902 5902 5903 5903 5903 5904 5904 5905 5905 5905 5906 5906 5907 5907 5907 5907 5908 5908 5907 5907 5907 5907 5907 5907 5907 5907 5907 5906 5906 5906 5905 5905 5905 5904 5904 5904 5904 5904 5904 5904 5904 5904 5904
5901 5901 5902 5902 5903 5903 5904 5904 5904 5905 5905 5906 5906 5906 5907 5907 5907 5907 5907 5907 5907 5907 5907 5907 5907 5906 5906 5906 5906 5905 5905 5904 5904 5904 5903 5903 5903 5903 5903 5903 5903 5903 5903
5900 5900 5901 5901 5901 5902 5902 5903 5903 5903 5904 5905 5905 5906 5906 5906 5906 5906 5906 5906 5906 5906 5906 5906 5906 5906 5906 5906 5905 5905 5904 5904 5903 5903 5903 5902 5902 5902 5902 5902 5902 5902 5902
5899 5899 5899 5900 5900 5900 5901 5901 5902 5902 5903 5903 5904 5904 5905 5905 5905 5905 5905 5905 5906 5906 5906 5905 5905 5905 5905 5905 5904 5904 5903 5903 5903 5902 5902 5902 5901 5901 5901 5901 5901 5901 5901
5897 5897 5897 5898 5898 5899 5899 5900 5900 5901 5901 5902 5902 5903 5903 5904 5904 5904 5904 5904 5904 5905 5904 5904 5904 5904 5904 5903 5903 5903 5902 5902 5901 5901 5901 5901 5900 5900 5900 5900 5899 5899 5899
5895 5895 5895 5895 5896 5897 5897 5898 5899 5899 5900 5900 5901 5901 5902 5902 5902 5903 5903 5903 5903 5903 5903 5903 5902 5902 5902 5902 5902 5901 5901 5901 5900 5900 5899 5899 5899 5898 5898 5898 5898 5897 5897
5893 5893 5893 5893 5894 5894 5895 5896 5896 5897 5898 5898 5899 5899 5900 5900 5900 5901 5901 5901 5901 5901 5901 5901 5901 5900 5900 5900 5900 5899 5899 5899 5898 5898 5897 5897 5897 5896 5896 5896 5895 5895 5895
5891 5891 5891 5891 5891 5892 5892 5893 5893 5894 5895 5895 5896 5896 5897 5897 5898 5898 5898 5899 5899 5899 5899 5898 5898 5898 5898 5897 5897 5896 5896 5896 5896 5896 5895 5895 5894 5894 5894 5893 5893 5893 5892
5889 5889 5889 5888 5888 5888 5889 5889 5890 5891 5892 5893 5893 5893 5894 5894 5895 5895 5896 5896 5896 5896 5896 5896 5895 5895 5895 5894 5894 5893 5893 5893 5893 5893 5892 5892 5891 5891 5891 5891 5890 5890 5889
5886 5886 5886 5885 5885 5885 5885 5886 5887 5888 5889 5889 5890 5890 5891 5891 5891 5892 5892 5892 5892 5893 5892 5892 5892 5891 5891 5891 5891 5890 5890 5889 5889 5889 5889 5888 5888 5888 5887 5887 5887 5886 5886
5883 5883 5883 5882 5882 5882 5882 5883 5883 5884 5885 5885 5886 5887 5887 5887 5888 5888 5888 5889 5889 5889 5889 5888 5888 5887 5887 5887 5887 5886 5886 5886 5885 5885 5885 5884 5884 5884 5883 5883 5883 5882 5881
5880 5880 5880 5879 5879 5879 5879 5880 5880 5880 5881 5881 5882 5882 5882 5883 5883 5884 5884 5884 5885 5885 5885 5884 5883 5883 5882 5882 5882 5881 5881 5881 5881 5880 5880 5880 5879 5879 5879 5878 5878 5877 5876
5877 5877 5877 5876 5876 5876 5876 5876 5876 5876 5876 5877 5877 5877 5877 5878 5878 5878 5878 5879 5879 5879 5880 5880 5879 5878 5877 5877 5877 5876 5876 5876 5876 5875 5875 5875 5874 5874 5873 5873 5872 5872 5871
5874 5874 5874 5873 5873 5873 5873 5872 5872 5873 5873 5872 5872 5872 5872 5872 5872 5873 5873 5873 5873 5873 5873 5874 5873 5872 5871 5871 5871 5870 5870 5870 5870 5870 5869 5869 5868 5868 5867 5866 5866 5865 5864
5870 5870 5870 5870 5869 5869 5869 5869 5869 5869 5869 5868 5868 5868 5868 5867 5867 5867 5867 5867 5867 5867 5867 5867 5867 5866 5865 5865 5864 5864 5864 5864 5864 5863 5863 5863 5862 5861 5861 5860 5859 5858 5858
5867 5866 5866 5866 5865 5865 5865 5865 5865 5864 5864 5864 5864 5863 5863 5862 5862 5862 5862 5861 5861 5861 5860 5860 5860 5860 5859 5858 5858 5858 5858 5857 5857 5856 5856 5856 5855 5855 5854 5853 5852 5851 5850
5863 5862 5862 5862 5861 5861 5860 5860 5860 5860 5859 5859 5859 5858 5858 5858 5857 5857 5856 5856 5855 5854 5854 5854 5853 5853 5852 5851 5851 5851 5851 5850 5850 5849 5849 5848 5848 5847 5846 5845 5844 5843 5842
5858 5858 5858 5858 5857 5856 5856 5855 5855 5855 5855 5854 5854 5853 5853 5852 5852 5851 5851 5850 5849 5849 5848 5847 5847 5846 5846 5845 5844 5843 5842 5842 5842 5841 5841 5840 5839 5838 5837 5836 5835 5834 5833
5854 5854 5854 5853 5853 5852 5851 5851 5850 5850 5849 5849 5849 5848 5847 5847 5846 5846 5845 5844 5843 5843 5842 5841 5840 5839 5839 5837 5836 5835 5834 5834 5834 5834 5832 5831 5830 5829 5828 5827 5825 5824 5823
5850 5850 5849 5849 5848 5848 5847 5846 5845 5844 5844 5843 5843 5842 5841 5841 5840 5840 5839 5838 5837 5836 5835 5834 5833 5832 5831 5830 5828 5827 5826 5825 5825 5824 5823 5822 5820 5819 5818 5816 5815 5813 5812
5846 5845 5845 5844 5843 5842 5841 5840 5840 5839 5838 5837 5837 5836 5835 5835 5834 5833 5833 5832 5830 5829 5828 5827 5826 5824 5823 5821 5820 5819 5818 5817 5816 5814 5813 5812 5811 5809 5807 5805 5804 5802 5800
5841 5840 5839 5839 5838 5837 5836 5835 5834 5833 5832 5832 5831 5830 5829 5829 5828 5827 5826 5825 5824 5822 5820 5819 5817 5816 5814 5812 5811 5809 5808 5806 5805 5804 5802 5801 5800 5798 5796 5794 5792 5790 5788
5835 5835 5834 5833 5833 5831 5830 5830 5829 5828 5827 5826 5825 5824 5823 5822 5821 5820 5819 5818 5816 5815 5813 5811 5809 5807 5805 5803 5801 5799 5798 5796 5794 5793 5792 5790 5788 5786 5785 5783 5780 5777 5775